Temperature
19 19 19 19 19 18 18 18 18 18 18 19 19 19 19 19 19 19 19 19 19 19 18 18 18 19 19 19 18 18 18 18 18 18 18 18 18 18 18 18 18 17 18
19 19 19 19 19 18 18 18 18 18 18 18 19 18 19 19 19 19 19 19 19 18 18 18 18 18 18 18 18 18 18 18 18 18 18 18 18 18 18 18 18 17 18
19 19 19 19 19 19 18 18 18 18 18 18 18 18 18 19 19 19 19 18 18 18 18 18 18 18 18 18 18 18 18 18 18 18 18 18 18 18 18 18 18 18 18
19 19 18 19 19 19 18 18 18 18 18 18 18 18 18 18 18 19 18 18 18 18 18 18 18 18 18 18 18 18 18 18 18 18 18 18 17 18 18 18 18 18 18
19 19 19 19 19 19 19 18 18 18 18 18 18 18 18 18 18 18 18 18 18 18 18 18 18 18 18 18 18 18 18 18 18 18 18 18 17 18 18 18 18 18 17
20 19 19 19 19 19 19 19 18 18 18 18 18 18 18 18 18 18 18 18 18 18 18 18 18 18 18 18 18 18 18 18 18 18 17 18 17 18 18 18 18 18 17
20 19 19 19 19 19 18 18 18 18 18 18 18 18 18 18 18 18 18 18 18 18 18 18 18 18 18 18 18 18 18 18 18 17 17 17 17 17 18 18 18 18 17
20 19 19 19 19 19 18 18 18 18 18 18 18 18 18 18 18 18 18 18 18 18 18 18 18 18 18 18 18 18 18 18 18 17 17 17 17 17 18 18 17 17 17
20 20 19 19 19 19 19 19 18 18 18 19 18 18 18 18 18 18 18 18 18 18 18 18 18 18 18 18 18 18 18 18 18 18 18 17 18 18 18 17 17 17 17
20 19 19 19 18 18 18 19 19 18 18 19 18 18 18 18 18 18 18 18 18 18 18 18 18 18 18 18 18 18 18 18 18 18 18 18 18 18 17 17 17 17 17
19 19 19 19 19 19 18 18 18 18 18 18 18 18 18 18 18 18 18 18 18 18 18 18 18 18 18 18 18 18 18 18 18 18 18 18 18 18 18 17 17 17 17
20 19 19 19 19 19 18 18 18 18 18 18 18 18 18 18 18 18 18 18 18 18 18 18 18 18 18 18 18 18 18 18 18 18 18 18 18 18 17 17 17 17 17
20 19 19 19 19 19 19 19 18 18 18 18 18 18 18 18 18 18 18 18 18 18 18 18 18 18 18 18 18 18 18 18 18 18 18 18 18 18 17 17 17 17 17
20 19 19 19 19 19 19 19 18 18 18 18 18 18 18 18 18 18 18 18 18 18 18 18 18 18 18 18 18 18 18 18 18 18 18 18 18 18 18 18 18 17 17
20 19 19 19 19 19 19 19 19 18 18 18 18 18 18 18 18 18 18 18 18 18 18 18 18 18 18 18 18 18 18 18 18 18 18 18 18 18 18 18 18 18 18
20 20 19 19 19 19 19 19 19 18 19 18 18 18 18 18 18 18 18 18 18 18 18 18 18 18 18 18 18 18 18 18 18 17 18 18 18 18 18 18 18 18 18
20 20 20 20 19 19 19 19 19 18 18 18 18 18 18 18 18 18 18 18 18 18 18 18 18 18 18 18 18 18 18 18 18 17 18 18 18 18 18 18 18 18 17
21 20 20 20 19 19 19 19 19 19 19 18 18 18 18 18 18 18 18 18 18 18 18 18 18 18 18 18 18 18 18 18 18 18 18 18 18 18 18 18 18 18 18
21 21 20 20 20 19 19 19 19 19 19 18 18 18 18 18 18 18 18 18 18 18 18 18 18 18 18 18 18 18 18 18 18 18 18 18 18 17 17 18 18 18 18
21 21 21 20 20 20 19 19 19 19 19 19 19 19 19 18 18 18 18 18 18 18 18 18 18 18 18 18 18 18 18 18 18 18 18 18 18 17 17 17 17 17 18
21 21 21 21 20 20 20 19 19 19 19 19 19 19 19 19 18 18 18 18 18 18 18 18 18 18 18 18 18 19 19 19 18 18 18 18 18 18 17 17 17 17 17
21 21 21 21 21 20 20 20 19 19 19 19 19 19 19 18 18 18 18 18 18 18 18 18 18 18 18 18 18 19 20 20 19 18 18 18 18 18 18 17 17 17 17
22 22 21 21 21 21 20 20 19 19 19 19 19 19 19 19 19 18 18 18 18 18 18 18 18 18 18 18 18 18 19 20 19 19 18 18 17 17 18 17 17 17 17
22 22 22 21 21 21 20 20 19 19 19 19 19 19 19 19 19 18 18 19 18 18 18 18 18 18 18 18 18 18 18 18 19 19 19 18 18 18 17 17 17 17 17
22 22 22 21 21 21 20 20 20 19 19 19 19 19 19 18 18 18 18 19 18 18 18 18 18 18 18 17 18 18 17 17 18 18 19 18 18 18 18 17 17 17 17
22 22 21 21 21 21 21 20 20 19 19 19 19 19 18 18 18 18 18 19 18 18 18 18 18 18 18 17 17 17 17 18 18 18 18 18 18 18 17 17 17 17 17
Wind_Speed
4 7 9 7 7 7 8 8 8 10 10 10 10 10 10 10 10 11 11 11 11 11 11 11 10 10 10 11 11 10 10 9 9 10 10 10 10 9 9 10 10 8 9
6 8 10 7 7 7 8 8 9 9 9 9 9 9 10 10 10 10 11 11 11 11 10 10 10 10 9 9 10 10 9 9 8 9 10 10 10 9 9 8 6 6 9
7 8 9 7 7 7 8 8 8 9 9 9 9 9 9 9 9 10 10 10 10 10 10 9 10 10 10 9 9 9 9 8 8 9 11 10 10 10 9 8 7 7 8
7 8 8 8 7 8 8 8 8 8 8 8 8 8 8 8 8 9 9 9 8 8 8 8 9 9 9 9 9 9 8 8 8 10 9 7 7 10 10 9 9 9 9
7 7 9 8 8 8 8 8 8 8 8 8 7 7 7 8 8 8 8 8 7 7 7 7 8 7 8 8 8 8 8 8 9 10 5 5 5 9 10 10 9 9 9
7 7 10 8 8 8 7 7 7 7 7 7 7 6 6 7 7 7 7 7 6 6 6 6 7 7 6 6 6 7 7 8 10 6 4 5 5 8 9 10 10 10 10
8 8 10 8 8 7 7 6 6 6 6 6 6 6 6 6 6 6 6 7 6 5 5 5 5 6 6 5 5 5 6 8 7 4 4 4 4 6 8 10 11 10 10
7 7 10 9 8 7 6 6 5 6 6 6 5 5 5 5 5 5 5 6 6 6 5 5 5 5 5 5 5 5 5 7 7 5 5 5 5 7 8 10 11 11 11
7 7 7 8 9 8 7 6 6 5 5 5 4 3 3 4 5 5 4 5 5 6 6 6 5 5 5 5 5 5 6 8 6 4 5 4 6 8 9 9 11 11 12
6 5 5 6 6 6 8 8 6 5 4 4 3 2 2 4 6 6 6 5 5 6 7 7 6 6 5 5 5 5 7 9 6 5 4 3 7 8 9 10 11 11 12
4 4 4 4 4 4 5 7 7 7 5 5 5 4 4 3 4 5 4 4 4 6 6 7 7 7 7 8 7 7 8 6 5 4 3 2 6 8 9 10 11 12 12
5 4 3 3 3 3 4 5 4 4 4 3 2 2 2 2 1 2 5 4 4 5 6 7 8 9 9 5 6 8 6 5 5 4 2 3 5 7 8 9 10 11 12
4 4 3 3 2 2 3 3 2 2 2 3 2 2 2 2 2 2 2 4 4 5 4 5 7 5 3 2 3 4 4 4 3 3 2 4 5 6 8 9 10 11 11
4 4 3 4 3 2 2 2 2 2 2 1 2 1 1 1 0 0 0 1 1 2 2 2 2 2 2 3 3 4 4 4 3 3 2 3 4 6 7 8 8 9 10
5 4 4 3 3 3 2 2 2 1 1 2 1 1 0 1 0 1 1 1 1 0 1 1 1 2 3 4 3 3 4 4 4 4 3 5 5 6 7 7 8 8 10
5 5 5 5 4 4 3 2 1 1 1 1 1 1 1 1 0 0 0 1 1 1 1 1 1 2 2 3 3 3 4 4 4 4 4 4 8 8 7 7 8 8 9
4 4 5 5 5 5 4 3 2 2 1 1 1 1 1 1 0 1 1 1 1 1 1 1 1 1 2 3 3 3 4 4 4 4 4 4 4 8 9 8 8 8 9
4 5 5 4 5 5 4 3 2 2 1 1 1 1 1 1 1 2 1 1 1 1 1 0 1 2 2 2 3 3 3 2 4 4 4 4 4 3 6 8 8 7 8
5 5 5 5 5 5 5 4 3 2 2 2 1 1 1 1 2 2 1 2 2 1 1 1 1 2 2 2 3 2 3 3 3 3 4 4 3 4 4 6 9 9 8
5 5 6 6 5 5 5 4 3 3 3 2 1 1 1 1 2 2 1 1 2 1 1 1 1 2 2 2 3 2 3 3 3 2 3 3 3 4 4 4 5 8 10
6 6 6 6 6 5 4 4 4 3 3 2 1 1 2 2 2 2 2 1 1 1 2 2 2 2 2 2 2 2 2 3 2 2 2 2 2 3 3 4 4 4 5
7 7 7 7 6 6 5 3 3 2 2 1 1 1 2 2 2 2 1 2 1 1 2 2 2 3 2 1 2 3 2 2 2 1 2 2 2 2 3 3 2 3 4
8 8 7 7 7 7 6 4 3 3 3 2 2 1 1 2 2 2 2 2 2 3 2 2 3 3 3 2 2 3 3 2 2 2 2 1 2 2 2 2 3 2 4
8 8 7 7 7 6 6 5 4 3 3 2 1 1 1 1 1 2 2 2 3 3 2 2 2 3 3 3 1 2 3 3 3 2 2 1 2 2 2 3 3 3 3
7 7 7 7 6 6 6 5 5 4 3 2 2 2 2 2 2 2 2 2 2 3 2 2 3 3 3 3 3 2 3 3 5 4 4 3 3 2 2 3 3 3 3
6 6 6 6 6 6 6 6 5 4 4 3 3 3 3 2 2 2 2 2 2 2 2 3 3 3 3 3 3 3 3 3 4 4 5 5 4 3 2 2 3 3 4
Wind_Direction
112 112 115 120 118 113 111 110 111 118 121 123 124 124 126 129 137 141 143 144 144 148 149 148 146 146 151 153 150 149 149 150 153 156 156 158 161 161 162 172 179 159 144
116 118 121 122 122 120 118 115 115 117 118 123 126 126 126 129 133 138 144 145 146 147 148 149 149 148 148 147 149 152 153 156 164 168 167 170 171 171 173 182 192 146 150
118 122 130 127 125 126 124 120 119 119 119 122 125 127 127 128 130 134 141 146 149 152 154 152 152 153 152 151 154 158 163 171 178 184 193 188 175 177 181 183 176 166 167
122 126 124 126 129 127 127 126 124 121 120 123 125 128 132 133 134 137 140 142 149 155 157 156 155 157 160 164 168 171 176 181 192 207 206 191 182 171 183 186 185 182 182
123 123 116 127 129 127 127 126 126 124 123 126 127 131 137 141 139 137 141 144 149 151 154 157 160 163 169 174 176 180 188 196 208 222 208 198 190 166 183 192 194 190 189
124 122 116 127 129 126 126 125 124 122 123 128 129 130 133 136 140 142 147 153 156 155 157 159 161 163 169 171 177 186 199 212 223 209 204 207 190 168 189 197 200 199 194
120 117 120 125 129 130 132 131 131 128 125 129 127 129 132 138 145 152 159 164 163 159 159 161 167 170 174 175 176 184 202 224 231 207 202 202 186 174 196 205 206 204 198
115 117 120 130 136 136 136 133 131 128 124 124 127 129 129 136 145 152 157 169 170 171 172 169 173 176 179 184 186 191 206 232 222 214 214 207 177 190 208 212 213 210 205
114 116 122 133 141 148 143 136 131 127 125 125 127 125 129 147 157 160 169 179 182 180 180 180 184 189 190 191 195 203 214 238 246 233 229 217 177 202 214 219 221 220 214
119 120 124 125 133 149 148 143 141 140 138 139 141 145 175 184 181 181 183 181 185 187 190 189 195 204 206 202 209 222 231 239 244 240 237 204 183 210 220 224 226 225 222
126 126 129 131 143 151 147 143 159 159 160 173 167 179 215 197 173 173 155 163 193 200 203 200 202 213 218 208 212 229 237 241 246 255 243 187 197 214 224 228 230 228 225
141 145 142 140 150 147 147 148 161 158 152 170 153 179 201 174 190 181 144 176 195 204 203 201 208 216 227 218 205 223 242 240 243 244 232 185 212 220 227 229 230 232 227
153 152 152 144 154 156 152 154 141 147 145 161 155 176 177 199 174 180 169 180 189 200 204 189 208 215 215 239 251 242 260 262 249 249 222 174 214 227 234 237 234 230 226
160 163 158 151 157 167 162 155 162 159 147 142 142 208 165 167 179 133 190 211 198 185 195 200 207 203 221 242 246 252 253 262 266 262 240 186 218 234 242 247 240 234 230
171 173 166 170 164 167 172 209 160 162 161 152 167 162 239 204 182 79 23 323 291 243 207 222 229 226 236 242 251 253 255 259 266 265 248 196 215 235 243 246 243 240 234
181 174 170 180 172 177 183 188 193 196 185 234 170 162 239 218 118 5 249 291 302 303 321 285 258 243 251 260 259 261 264 267 262 264 264 221 206 221 235 243 244 243 243
182 174 175 181 178 182 190 196 192 208 197 200 154 188 242 251 172 261 276 271 309 307 284 259 271 263 252 255 260 260 255 260 269 267 268 269 239 207 213 228 237 242 244
183 176 182 187 178 182 188 200 203 215 201 205 205 202 208 269 276 280 299 302 306 274 263 272 282 291 285 283 274 269 266 253 254 259 257 256 266 257 207 208 227 240 243
186 181 183 191 186 183 184 191 200 196 213 222 221 244 206 232 255 269 314 331 284 287 297 292 336 296 292 296 275 252 261 255 254 255 265 260 253 263 262 204 213 225 234
185 188 188 188 189 187 186 187 197 200 204 207 213 233 253 245 247 276 257 289 294 309 314 329 309 294 289 295 292 288 260 255 253 254 263 259 249 255 261 267 238 215 211
189 189 192 192 183 191 195 200 198 198 202 199 200 201 229 254 261 266 288 282 292 316 316 307 298 280 297 308 297 291 240 223 232 252 268 280 274 266 265 265 262 265 221
194 196 196 192 188 193 192 200 208 221 214 194 186 147 242 247 259 250 280 280 277 288 293 297 289 301 310 309 304 301 285 204 195 236 255 260 297 286 275 266 268 254 267
197 201 202 198 193 195 189 191 188 191 203 193 196 200 237 248 247 278 272 275 273 257 252 262 276 286 305 306 307 309 309 315 310 216 246 270 290 293 286 285 264 261 258
201 196 197 194 195 191 190 199 200 201 204 207 219 220 222 220 237 234 246 252 259 265 269 265 275 286 286 293 287 283 298 312 295 290 253 274 274 270 288 289 289 272 264
195 191 189 186 189 192 197 200 208 214 215 216 206 195 229 210 222 230 238 255 259 265 278 294 297 291 289 294 297 289 275 262 268 285 293 297 280 266 275 279 290 288 280
183 184 183 176 178 187 194 202 207 211 218 227 224 222 223 218 222 228 238 259 267 285 284 278 281 278 291 297 292 288 285 288 286 282 285 282 283 281 281 286 285 291 284
Height
1517 1516 1515 1515 1515 1515 1516 1516 1516 1517 1518 1519 1520 1521 1522 1523 1524 1526 1528 1529 1531 1533 1534 1536 1537 1538 1538 1539 1541 1542 1543 1545 1546 1546 1547 1548 1549 1549 1550 1551 1552 1552 1553
1518 1517 1516 1516 1517 1517 1517 1518 1518 1519 1520 1521 1522 1523 1523 1525 1526 1527 1529 1531 1532 1534 1535 1536 1538 1539 1540 1540 1541 1543 1544 1545 1546 1547 1547 1548 1549 1549 1550 1550 1551 1552 1552
1518 1518 1517 1518 1518 1519 1519 1520 1520 1521 1522 1523 1524 1524 1525 1527 1528 1529 1531 1532 1533 1535 1536 1537 1538 1539 1540 1541 1542 1543 1544 1545 1546 1547 1548 1549 1549 1549 1550 1550 1551 1551 1552
1519 1520 1520 1519 1520 1520 1521 1522 1522 1523 1524 1524 1525 1526 1527 1528 1530 1531 1532 1533 1534 1535 1537 1538 1539 1540 1541 1541 1542 1543 1544 1545 1546 1547 1548 1550 1550 1549 1549 1550 1550 1550 1551
1521 1521 1521 1520 1521 1522 1523 1523 1524 1524 1525 1526 1527 1528 1529 1530 1531 1532 1533 1534 1535 1536 1537 1539 1539 1540 1541 1542 1543 1543 1544 1545 1546 1547 1548 1548 1548 1548 1548 1549 1549 1549 1550
1522 1523 1522 1522 1523 1523 1524 1525 1525 1526 1526 1527 1528 1529 1530 1531 1532 1533 1534 1535 1536 1537 1538 1539 1540 1540 1541 1542 1542 1543 1544 1544 1545 1547 1547 1547 1547 1546 1547 1547 1548 1548 1549
1524 1524 1524 1523 1524 1525 1526 1526 1526 1527 1528 1528 1529 1530 1531 1532 1532 1533 1534 1535 1536 1537 1538 1539 1540 1541 1541 1542 1542 1543 1543 1543 1545 1546 1546 1546 1546 1545 1545 1546 1547 1547 1548
1525 1526 1525 1525 1525 1526 1527 1527 1528 1528 1529 1529 1530 1531 1532 1533 1533 1534 1534 1535 1536 1537 1538 1539 1540 1540 1541 1542 1542 1542 1542 1543 1545 1545 1545 1545 1544 1544 1544 1544 1545 1546 1546
1527 1527 1528 1528 1527 1528 1528 1529 1529 1529 1530 1531 1531 1532 1533 1533 1534 1534 1535 1535 1536 1536 1537 1538 1539 1540 1541 1541 1542 1542 1542 1542 1544 1544 1545 1544 1543 1543 1543 1543 1544 1544 1545
1528 1528 1529 1529 1530 1530 1530 1530 1530 1531 1531 1532 1532 1533 1533 1534 1534 1535 1535 1535 1535 1536 1537 1537 1538 1539 1540 1540 1541 1541 1541 1542 1543 1543 1543 1542 1541 1542 1542 1542 1542 1542 1543
1529 1529 1530 1530 1531 1531 1532 1531 1532 1532 1532 1532 1533 1533 1534 1535 1536 1536 1536 1535 1536 1536 1536 1537 1537 1538 1539 1539 1540 1540 1540 1541 1542 1542 1541 1540 1540 1540 1540 1540 1540 1541 1541
1529 1530 1531 1531 1531 1532 1532 1532 1533 1534 1533 1533 1534 1534 1535 1535 1535 1536 1535 1535 1535 1535 1535 1536 1536 1537 1538 1539 1539 1539 1540 1540 1540 1540 1539 1538 1537 1538 1538 1538 1538 1538 1539
1530 1531 1531 1531 1531 1532 1533 1533 1534 1534 1534 1534 1534 1534 1534 1535 1535 1536 1536 1536 1536 1536 1536 1536 1536 1537 1537 1538 1539 1539 1538 1539 1538 1538 1537 1536 1536 1536 1536 1536 1536 1536 1537
1531 1531 1532 1532 1531 1532 1533 1534 1534 1535 1535 1535 1535 1535 1535 1535 1535 1536 1535 1536 1536 1536 1535 1536 1535 1535 1536 1536 1537 1537 1537 1537 1536 1536 1535 1534 1534 1534 1534 1534 1534 1534 1534
1531 1531 1532 1532 1532 1532 1532 1533 1535 1535 1535 1535 1535 1535 1535 1535 1535 1536 1535 1535 1536 1535 1535 1535 1535 1534 1534 1535 1535 1535 1535 1535 1534 1534 1533 1532 1532 1532 1532 1532 1532 1532 1532
1531 1532 1532 1532 1532 1532 1533 1533 1534 1535 1535 1535 1535 1535 1535 1535 1535 1535 1535 1535 1535 1535 1535 1534 1534 1534 1534 1534 1534 1533 1533 1533 1533 1532 1532 1531 1530 1530 1530 1530 1530 1530 1530
1530 1531 1531 1532 1532 1532 1533 1534 1535 1535 1536 1536 1535 1535 1535 1535 1535 1535 1535 1535 1535 1535 1534 1533 1533 1533 1533 1533 1532 1532 1532 1531 1531 1530 1530 1530 1529 1528 1528 1528 1527 1527 1527
1530 1530 1531 1532 1532 1532 1533 1533 1535 1535 1535 1535 1535 1535 1535 1535 1535 1535 1535 1535 1534 1534 1534 1533 1533 1533 1532 1532 1531 1531 1531 1530 1529 1529 1529 1528 1528 1528 1527 1526 1525 1525 1525
1529 1529 1530 1531 1532 1532 1533 1533 1534 1534 1534 1535 1535 1535 1535 1535 1534 1535 1535 1534 1534 1534 1534 1533 1532 1532 1531 1530 1530 1529 1529 1529 1528 1528 1527 1527 1526 1525 1525 1524 1524 1523 1523
1528 1528 1529 1530 1531 1531 1532 1533 1533 1534 1534 1534 1535 1534 1534 1534 1534 1534 1534 1534 1534 1534 1533 1532 1531 1531 1530 1530 1530 1529 1528 1528 1527 1527 1526 1526 1525 1524 1524 1523 1522 1522 1521
1527 1528 1528 1529 1530 1530 1532 1533 1533 1534 1534 1534 1534 1534 1534 1534 1534 1534 1534 1533 1533 1533 1532 1532 1531 1531 1530 1529 1529 1528 1527 1526 1526 1525 1525 1524 1524 1523 1522 1521 1521 1520 1520
1526 1526 1527 1528 1529 1530 1530 1531 1532 1532 1533 1533 1533 1533 1533 1533 1533 1534 1532 1533 1532 1532 1531 1530 1530 1530 1530 1528 1528 1527 1526 1527 1525 1524 1524 1523 1522 1522 1521 1520 1519 1518 1518
1524 1525 1526 1527 1528 1528 1529 1530 1531 1531 1531 1532 1532 1532 1532 1532 1532 1531 1531 1531 1531 1531 1530 1529 1529 1529 1529 1528 1527 1527 1526 1524 1524 1524 1522 1522 1520 1520 1519 1519 1518 1517 1516
1523 1524 1525 1525 1526 1527 1528 1529 1530 1530 1531 1531 1531 1531 1531 1530 1530 1530 1530 1529 1529 1529 1529 1529 1528 1528 1527 1527 1526 1525 1525 1524 1524 1522 1522 1521 1519 1518 1518 1517 1517 1516 1514
1521 1522 1523 1524 1524 1526 1526 1527 1528 1529 1529 1530 1530 1529 1529 1529 1529 1529 1528 1528 1527 1527 1527 1527 1526 1526 1526 1525 1525 1524 1523 1523 1522 1521 1520 1520 1519 1517 1516 1515 1514 1514 1513
1519 1520 1521 1522 1522 1523 1524 1525 1525 1526 1527 1528 1528 1528 1528 1528 1528 1527 1527 1526 1526 1526 1525 1525 1524 1524 1524 1523 1522 1522 1522 1522 1521 1520 1518 1517 1516 1516 1514 1513 1513 1512 1511